DW2144 Weather Reports


Display with metric or nautical units.
time (UTC)temp
F
wind
direction
speed
MPH
gust
MPH
rain 1hr
in
rain 24hr
in
rain mn
in
humidity
%
barometer
mb
20260503024521 57 351 0.0 1.0 0.00 0.00 0.00 80 1009.6
20260503023021 57 351 0.0 3.0 0.00 0.00 0.00 79 1009.4
20260503021525 58 355 0.0 1.0 0.00 0.00 0.00 79 1009.5
20260503020020 58 355 0.0 2.0 0.00 0.00 0.00 79 1009.6
20260503014526 58 355 0.0 3.0 0.00 0.00 0.00 78 1009.6
20260503013018 59 360 0.0 3.0 0.00 0.00 0.00 77 1009.6
20260503011517 59 9 0.0 1.0 0.00 0.00 0.00 78 1009.6
20260503010017 59 306 0.0 5.0 0.00 0.00 0.00 78 1009.6
20260503004524 60 336 0.0 4.0 0.00 0.00 0.00 78 1009.7
20260503003016 60 336 0.0 4.0 0.00 0.00 0.00 77 1009.7
20260503001514 61 335 0.0 3.0 0.00 0.00 0.00 77 1009.8
20260503000013 61 336 0.0 4.0 0.00 0.00 0.00 76 1009.8
20260502234512 62 339 0.0 4.0 0.00 0.00 0.00 76 1009.8
20260502233012 62 335 0.0 5.0 0.00 0.00 0.00 77 1009.8
20260502231515 62 336 0.0 4.0 0.00 0.00 0.00 77 1010.0
20260502230012 61 337 0.0 4.0 0.00 0.00 0.00 77 1010.1
20260502224508 61 339 0.0 3.0 0.00 0.00 0.00 78 1010.4
20260502223006 61 339 0.0 3.0 0.00 0.00 0.00 79 1010.7
20260502221506 62 341 0.0 3.0 0.00 0.00 0.00 77 1010.9
20260502220006 61 341 0.0 2.0 0.00 0.00 0.00 80 1011.1
20260502214510 61 341 0.0 5.0 0.00 0.00 0.00 78 1011.1
20260502213004 62 317 0.0 5.0 0.00 0.00 0.00 79 1011.2
20260502211503 62 27 0.0 2.0 0.00 0.00 0.00 79 1011.2
20260502210001 61 28 0.0 3.0 0.00 0.00 0.00 80 1011.3
20260502204558 60 28 0.0 3.0 0.00 0.00 0.00 81 1011.5
20260502203100 59 24 0.0 0.0 0.00 0.00 0.00 83 1011.6
20260502201557 59 355 0.0 0.0 0.00 0.00 0.00 83 1011.7
20260502200052 58 355 0.0 1.0 0.00 0.00 0.00 84 1011.8
20260502194601 58 360 0.0 1.0 0.00 0.00 0.00 84 1012.0
20260502193047 57 360 0.0 2.0 0.00 0.00 0.00 85 1012.2
20260502191547 57 360 0.0 1.0 0.00 0.00 0.00 85 1012.2
20260502190045 56 360 0.0 0.0 0.00 0.00 0.00 86 1012.3
20260502184552 56 360 0.0 1.0 0.00 0.00 0.00 86 1012.2
20260502183053 56 360 0.0 1.0 0.00 0.00 0.00 86 1012.1
20260502181543 56 360 0.0 0.0 0.00 0.00 0.00 86 1012.1
20260502163040 54 332 0.0 1.0 0.00 0.00 0.00 87 1012.0
20260502161529 54 332 0.0 0.0 0.00 0.00 0.00 87 1011.9
20260502151523 53 332 0.0 0.0 0.00 0.00 0.00 86 1011.5
20260502123019 53 332 0.0 0.0 0.00 0.00 0.00 87 1010.6
20260502121516 53 332 0.0 0.0 0.00 0.00 0.00 87 1010.8
20260502114514 53 332 0.0 0.0 0.00 0.00 0.00 87 1011.2
20260502113014 53 332 0.0 0.0 0.00 0.00 0.00 87 1010.7
20260502111513 53 332 0.0 0.0 0.00 0.00 0.00 87 1010.5
20260502110012 53 332 0.0 0.0 0.00 0.00 0.00 87 1010.6
20260502104515 53 332 0.0 0.0 0.00 0.00 0.00 87 1010.8
20260502103014 53 332 0.0 0.0 0.00 0.00 0.00 87 1010.7
20260502101529 53 332 0.0 0.0 0.00 0.00 0.00 87 1010.8
20260502091505 53 332 0.0 0.0 0.00 0.00 0.00 87 1011.3
20260502080109 53 332 0.0 0.0 0.00 0.00 0.00 86 1011.5
20260502070109 54 332 0.0 0.0 0.00 0.00 0.00 86 1011.5
20260502064556 54 332 0.0 0.0 0.00 0.00 0.00 86 1011.5
20260502063058 54 332 0.0 0.0 0.00 0.00 0.00 86 1011.6
20260502061559 54 332 0.0 0.0 0.00 0.00 0.00 86 1011.5
20260502060052 54 332 0.0 0.0 0.00 0.00 0.00 86 1011.7
20260502054556 54 332 0.0 0.0 0.00 0.00 0.00 86 1011.8
20260502053051 54 332 0.0 0.0 0.00 0.00 0.00 85 1011.7
20260502051615 55 332 0.0 0.0 0.00 0.00 0.00 84 1011.6
20260502050049 55 332 0.0 0.0 0.00 0.00 0.00 84 1011.8
20260502044549 56 332 0.0 0.0 0.00 0.00 0.00 83 1011.5
20260502043051 57 332 0.0 0.0 0.00 0.00 0.00 83 1011.4
20260502041548 57 332 0.0 0.0 0.00 0.00 0.00 82 1011.4
20260502040055 58 332 0.0 0.0 0.00 0.00 0.00 81 1011.2
20260502034547 59 332 0.0 0.0 0.00 0.00 0.00 79 1010.9
20260502033047 60 332 0.0 0.0 0.00 0.00 0.00 77 1010.8
20260502031546 61 332 0.0 0.0 0.00 0.00 0.00 76 1010.7
20260502030045 62 332 0.0 0.0 0.00 0.00 0.00 74 1010.5